Location: Castiglione Fibocchi
(43.5333°N, 11.7667°E)
Time: 13:28:24
(UTC+00:00)

Cosmos 2142 Rocket - Pass Details

Date: 15 August 2020
Orbit: 952 x 1005 km, 82.9° (Epoch: 25 September)

Event Time Altitude Azimuth Distance (km) Brightness Sun altitude
Exits shadow 00:17:46 84° 2° (N) 1,016 4.5 -30.9°
Drops below altitude 10° 00:23:58 10° 8° (N) 2,790 7.8 -30.5°
Sets 00:26:30 0° 8° (N) 3,743 8.7 -30.4°
